TimeCST,TemperatureF,Dew PointF,Humidity,Sea Level PressureIn,VisibilityMPH,Wind Direction,Wind SpeedMPH,Gust SpeedMPH,PrecipitationIn,Events,Conditions,WindDirDegrees,DateUTC
12:15 AM,26.6,21.2,80,29.77,10.0,SW,6.9,-,N/A,,Clear,230,2011-12-21 06:15:00
12:35 AM,26.6,23.0,86,29.76,10.0,WSW,6.9,-,N/A,,Clear,240,2011-12-21 06:35:00
12:55 AM,26.6,23.0,86,29.75,10.0,SW,6.9,-,N/A,,Clear,230,2011-12-21 06:55:00
1:15 AM,26.6,21.2,80,29.75,9.0,WSW,5.8,-,N/A,,Clear,240,2011-12-21 07:15:00
1:55 AM,26.6,23.0,86,29.74,8.0,WSW,3.5,-,N/A,,Clear,240,2011-12-21 07:55:00
2:15 AM,24.8,24.8,100,29.74,7.0,Calm,Calm,-,N/A,,Clear,0,2011-12-21 08:15:00
2:35 AM,24.8,24.8,100,29.73,6.0,WSW,3.5,-,N/A,,Clear,250,2011-12-21 08:35:00
2:55 AM,24.8,21.2,86,29.72,6.0,Calm,Calm,-,N/A,,Scattered Clouds,0,2011-12-21 08:55:00
3:15 AM,24.8,23.0,93,29.71,5.0,Calm,Calm,-,N/A,,Overcast,0,2011-12-21 09:15:00
3:35 AM,21.2,21.2,100,29.71,5.0,Calm,Calm,-,N/A,,Overcast,0,2011-12-21 09:35:00
3:55 AM,23.0,19.4,86,29.70,5.0,Calm,Calm,-,N/A,,Overcast,0,2011-12-21 09:55:00
4:35 AM,24.8,24.8,100,29.70,7.0,Calm,Calm,-,N/A,,Overcast,0,2011-12-21 10:35:00
4:55 AM,26.6,23.0,86,29.70,7.0,Calm,Calm,-,N/A,,Overcast,0,2011-12-21 10:55:00
5:15 AM,26.6,26.6,100,29.70,7.0,Calm,Calm,-,N/A,,Overcast,0,2011-12-21 11:15:00
5:55 AM,26.6,24.8,93,29.69,7.0,Calm,Calm,-,N/A,,Overcast,0,2011-12-21 11:55:00
6:55 AM,28.4,26.6,93,29.68,7.0,SW,3.5,-,N/A,,Overcast,220,2011-12-21 12:55:00
7:15 AM,28.4,24.8,86,29.68,6.0,Calm,Calm,-,N/A,,Overcast,0,2011-12-21 13:15:00
7:35 AM,28.4,24.8,86,29.68,5.0,WSW,3.5,-,N/A,,Partly Cloudy,250,2011-12-21 13:35:00
7:55 AM,26.6,24.8,93,29.67,5.0,Calm,Calm,-,N/A,,Partly Cloudy,0,2011-12-21 13:55:00
8:35 AM,26.6,24.8,93,29.67,4.0,WSW,5.8,-,N/A,,Partly Cloudy,240,2011-12-21 14:35:00
8:55 AM,26.6,24.8,93,29.67,4.0,WSW,4.6,-,N/A,,Mostly Cloudy,240,2011-12-21 14:55:00
9:15 AM,28.4,26.6,93,29.68,5.0,WSW,4.6,-,N/A,,Mostly Cloudy,250,2011-12-21 15:15:00
9:35 AM,28.4,24.8,86,29.68,5.0,West,4.6,-,N/A,,Scattered Clouds,270,2011-12-21 15:35:00
9:55 AM,28.4,26.6,93,29.68,5.0,West,4.6,-,N/A,,Partly Cloudy,260,2011-12-21 15:55:00
10:15 AM,30.2,26.6,86,29.68,5.0,West,5.8,-,N/A,,Clear,280,2011-12-21 16:15:00
10:35 AM,32.0,26.6,80,29.67,7.0,West,6.9,-,N/A,,Clear,260,2011-12-21 16:35:00
10:55 AM,32.0,26.6,80,29.66,7.0,WSW,6.9,-,N/A,,Clear,250,2011-12-21 16:55:00
11:15 AM,33.8,30.2,87,29.66,7.0,WNW,6.9,-,N/A,,Mostly Cloudy,290,2011-12-21 17:15:00
11:35 AM,35.6,26.6,70,29.65,8.0,West,5.8,-,N/A,,Scattered Clouds,260,2011-12-21 17:35:00
12:35 PM,37.4,24.8,60,29.64,10.0,West,8.1,-,N/A,,Clear,260,2011-12-21 18:35:00
12:55 PM,37.4,24.8,60,29.64,10.0,West,4.6,-,N/A,,Clear,270,2011-12-21 18:55:00
1:15 PM,37.4,23.0,56,29.64,10.0,WSW,4.6,-,N/A,,Clear,240,2011-12-21 19:15:00
1:35 PM,37.4,23.0,56,29.65,10.0,West,5.8,-,N/A,,Clear,260,2011-12-21 19:35:00
1:55 PM,37.4,23.0,56,29.65,10.0,West,6.9,-,N/A,,Clear,260,2011-12-21 19:55:00
2:15 PM,37.4,21.2,52,29.66,10.0,West,6.9,-,N/A,,Clear,270,2011-12-21 20:15:00
2:35 PM,37.4,23.0,56,29.66,10.0,West,5.8,-,N/A,,Clear,270,2011-12-21 20:35:00
2:55 PM,37.4,23.0,56,29.67,10.0,West,6.9,-,N/A,,Clear,260,2011-12-21 20:55:00
3:15 PM,37.4,21.2,52,29.68,10.0,WSW,3.5,-,N/A,,Clear,250,2011-12-21 21:15:00
3:35 PM,35.6,21.2,56,29.68,10.0,WSW,4.6,-,N/A,,Clear,240,2011-12-21 21:35:00
3:55 PM,35.6,23.0,60,29.69,10.0,WSW,4.6,-,N/A,,Clear,240,2011-12-21 21:55:00
4:15 PM,35.6,23.0,60,29.70,9.0,WSW,3.5,-,N/A,,Clear,250,2011-12-21 22:15:00
4:35 PM,33.8,24.8,70,29.71,9.0,WSW,5.8,-,N/A,,Clear,240,2011-12-21 22:35:00
4:55 PM,33.8,23.0,65,29.72,10.0,WSW,4.6,-,N/A,,Clear,250,2011-12-21 22:55:00
5:55 PM,32.0,23.0,69,29.74,10.0,West,3.5,-,N/A,,Clear,270,2011-12-21 23:55:00
6:35 PM,30.2,24.8,80,29.77,10.0,Calm,Calm,-,N/A,,Clear,0,2011-12-22 00:35:00
6:55 PM,30.2,24.8,80,29.78,10.0,WNW,3.5,-,N/A,,Mostly Cloudy,290,2011-12-22 00:55:00
7:15 PM,30.2,21.2,69,29.79,10.0,WNW,4.6,-,N/A,,Overcast,290,2011-12-22 01:15:00
7:35 PM,30.2,21.2,69,29.79,10.0,WNW,3.5,-,N/A,,Overcast,290,2011-12-22 01:35:00
7:55 PM,30.2,19.4,64,29.80,10.0,West,3.5,-,N/A,,Overcast,280,2011-12-22 01:55:00
8:15 PM,30.2,19.4,64,29.81,10.0,Calm,Calm,-,N/A,,Overcast,0,2011-12-22 02:15:00
8:35 PM,30.2,19.4,64,29.82,10.0,West,3.5,-,N/A,,Overcast,280,2011-12-22 02:35:00
9:15 PM,32.0,17.6,55,29.84,10.0,NW,3.5,-,N/A,,Overcast,310,2011-12-22 03:15:00
9:35 PM,32.0,17.6,55,29.84,10.0,Calm,Calm,-,N/A,,Overcast,0,2011-12-22 03:35:00
9:55 PM,32.0,19.4,60,29.85,10.0,Calm,Calm,-,N/A,,Overcast,0,2011-12-22 03:55:00
10:15 PM,32.0,19.4,60,29.85,10.0,Calm,Calm,-,N/A,,Overcast,0,2011-12-22 04:15:00
11:15 PM,32.0,21.2,64,29.90,10.0,NW,4.6,-,N/A,,Overcast,320,2011-12-22 05:15:00
11:35 PM,32.0,21.2,64,29.90,10.0,NNW,4.6,-,N/A,,Overcast,330,2011-12-22 05:35:00
11:55 PM,32.0,23.0,69,29.91,10.0,NNW,4.6,-,N/A,,Overcast,330,2011-12-22 05:55:00